GW7154 Weather Reports


time (UTC)temp
C
wind
direction
speed
KPH
gust
KPH
rain 1hr
cm
rain 24hr
cm
rain mn
cm
humidity
%
barometer
mb
20260507021039 18 120 0.0 0.0 0.00 0.05 0.05 89 1006.8
20260507020537 18 120 0.0 0.0 0.00 0.05 0.05 89 1006.8
20260507020033 18 120 0.0 0.0 0.00 0.05 0.05 90 1007.1
20260507015532 18 132 0.0 0.0 0.00 0.05 0.05 90 1007.1
20260507015029 17 132 0.0 0.0 0.00 0.05 0.05 90 1007.1
20260507014525 17 132 0.0 0.0 0.00 0.05 0.05 89 1007.4
20260507014021 17 136 0.0 0.0 0.00 0.05 0.05 91 1007.1
20260507013518 17 136 0.0 0.0 0.00 0.05 0.05 91 1007.1
20260507013015 17 136 0.0 0.0 0.00 0.05 0.05 91 1007.1
20260507012512 17 136 0.0 0.0 0.00 0.05 0.05 91 1006.8
20260507012008 17 136 0.0 0.0 0.00 0.05 0.05 90 1006.8
20260507011506 18 136 0.0 0.0 0.00 0.05 0.05 90 1006.8
20260507011002 18 136 0.0 0.0 0.00 0.05 0.05 89 1006.8
20260507010456 18 136 0.0 0.0 0.00 0.05 0.05 88 1007.1
20260507005953 18 136 0.0 0.0 0.00 0.05 0.05 88 1006.8
20260507005451 18 136 0.0 0.0 0.00 0.05 0.05 88 1006.8
20260507004947 18 136 0.0 0.0 0.00 0.05 0.05 87 1006.8
20260507004444 18 136 0.0 0.0 0.00 0.05 0.05 87 1006.8
20260507003942 18 136 0.0 0.0 0.00 0.05 0.05 88 1006.8
20260507003436 18 136 0.0 0.0 0.00 0.05 0.05 88 1006.8
20260507002931 18 223 0.0 0.0 0.00 0.05 0.05 88 1006.8
20260507002428 18 192 0.0 0.0 0.00 0.05 0.05 87 1006.8
20260507001925 18 242 0.0 0.0 0.00 0.05 0.05 88 1006.8
20260507001422 18 228 0.0 0.0 0.00 0.05 0.05 88 1006.8
20260507000920 18 190 0.0 0.0 0.00 0.05 0.05 87 1006.8
20260507000415 18 190 0.0 0.0 0.00 0.05 0.05 87 1006.8
20260506235911 18 191 0.0 0.0 0.00 0.05 0.05 86 1006.1
20260506235409 18 276 0.0 0.0 0.00 0.05 0.05 86 1006.1
20260506234903 19 274 0.0 0.0 0.00 0.05 0.05 85 1006.1
20260506234402 19 238 0.0 0.0 0.00 0.05 0.05 84 1006.1
20260506233859 19 244 0.0 0.0 0.00 0.05 0.05 83 1006.1
20260506233355 19 342 0.0 0.0 0.00 0.05 0.05 84 1006.1
20260506232852 19 210 0.0 0.0 0.00 0.05 0.05 84 1006.1
20260506232348 19 336 0.0 0.0 0.00 0.05 0.05 83 1006.1
20260506231844 20 215 0.0 0.0 0.00 0.05 0.05 83 1006.4
20260506231342 20 215 0.0 0.0 0.00 0.05 0.05 82 1006.1
20260506230839 20 108 0.0 0.0 0.00 0.05 0.05 82 1006.1
20260506230336 20 173 0.0 0.0 0.00 0.05 0.05 81 1006.1
20260506225832 20 262 0.0 0.0 0.00 0.05 0.05 81 1006.1
20260506225330 20 194 0.0 0.0 0.00 0.05 0.05 81 1006.4
20260506224826 20 276 0.0 0.0 0.00 0.05 0.05 81 1006.1
20260506224323 20 145 0.0 0.0 0.00 0.05 0.05 80 1006.1
20260506223820 20 87 0.0 0.0 0.00 0.05 0.05 80 1006.1
20260506223315 20 186 3.2 3.2 0.00 0.05 0.05 80 1006.1
20260506222813 21 156 4.8 4.8 0.00 0.05 0.05 79 1006.1
20260506222308 21 197 0.0 0.0 0.00 0.05 0.05 80 1006.1
20260506221806 20 175 0.0 0.0 0.00 0.05 0.05 79 1006.4
20260506221303 21 155 4.8 4.8 0.00 0.05 0.05 78 1006.1
20260506220801 20 29 0.0 0.0 0.00 0.05 0.05 78 1005.8
20260506220301 21 239 3.2 3.2 0.00 0.05 0.05 78 1006.1
20260506215758 21 312 0.0 0.0 0.00 0.05 0.05 77 1006.4
20260506215254 21 140 4.8 4.8 0.00 0.05 0.05 78 1006.1
20260506214750 21 66 0.0 0.0 0.00 0.05 0.05 77 1005.8
20260506214247 20 204 0.0 0.0 0.00 0.05 0.05 78 1005.8
20260506213746 21 143 4.8 6.4 0.00 0.05 0.05 78 1006.1
20260506213242 21 107 0.0 0.0 0.00 0.05 0.05 78 1006.1
20260506212740 20 60 1.6 1.6 0.00 0.05 0.05 79 1005.8
20260506212236 20 223 3.2 3.2 0.00 0.05 0.05 78 1006.1
20260506211731 21 101 3.2 3.2 0.00 0.05 0.05 78 1005.8
20260506211227 21 294 3.2 3.2 0.00 0.05 0.05 79 1005.8
20260506210725 21 121 0.0 0.0 0.00 0.05 0.05 77 1006.1
20260506210221 21 50 3.2 3.2 0.00 0.05 0.05 77 1005.8
20260506205719 21 156 0.0 0.0 0.00 0.05 0.05 77 1005.8
20260506205214 21 42 0.0 0.0 0.00 0.05 0.05 76 1005.4
20260506204711 21 270 0.0 0.0 0.00 0.05 0.05 78 1005.4
20260506204208 21 112 1.6 1.6 0.00 0.05 0.05 76 1005.4
20260506203706 20 311 0.0 0.0 0.00 0.05 0.05 78 1005.4
20260506203203 20 192 4.8 6.4 0.00 0.05 0.05 76 1005.1
20260506202701 21 247 3.2 3.2 0.00 0.05 0.05 75 1005.4
20260506202156 21 172 3.2 3.2 0.00 0.05 0.05 75 1005.4
20260506201654 21 178 0.0 0.0 0.00 0.05 0.05 78 1005.8
20260506201150 21 255 3.2 3.2 0.00 0.05 0.05 75 1005.4
20260506200647 21 66 3.2 3.2 0.00 0.05 0.05 74 1005.4
20260506200144 21 246 1.6 1.6 0.00 0.05 0.05 75 1005.8
20260506195641 21 178 3.2 3.2 0.00 0.05 0.05 77 1005.8
20260506195137 21 199 3.2 3.2 0.00 0.05 0.05 75 1005.8
20260506194634 21 256 9.7 9.7 0.00 0.05 0.05 75 1005.4
20260506194130 22 210 0.0 0.0 0.00 0.05 0.05 74 1005.4
20260506193628 22 18 8.0 9.7 0.00 0.05 0.05 71 1005.8
20260506193125 21 205 3.2 3.2 0.00 0.05 0.05 74 1005.8
20260506192622 21 319 0.0 0.0 0.00 0.05 0.05 77 1005.8
20260506192118 20 339 0.0 0.0 0.00 0.05 0.05 76 1006.1
20260506191615 20 134 4.8 4.8 0.00 0.05 0.05 77 1005.8
20260506191111 20 84 3.2 3.2 0.00 0.05 0.05 77 1006.1
20260506190609 20 239 3.2 3.2 0.00 0.05 0.05 78 1006.1
20260506190105 20 191 0.0 0.0 0.00 0.05 0.05 76 1006.1
20260506185602 20 217 3.2 3.2 0.00 0.05 0.05 77 1006.1
20260506185059 20 194 6.4 6.4 0.00 0.05 0.05 79 1006.1
20260506184556 20 70 0.0 0.0 0.00 0.05 0.05 79 1006.1
20260506184053 20 108 3.2 3.2 0.00 0.05 0.05 78 1006.1
20260506183549 20 264 3.2 3.2 0.00 0.05 0.05 78 1006.4
20260506183046 20 78 3.2 3.2 0.00 0.05 0.05 78 1006.4
20260506182543 20 336 0.0 0.0 0.00 0.05 0.05 77 1006.1
20260506182040 20 65 0.0 0.0 0.00 0.05 0.05 79 1006.4
20260506181538 20 246 1.6 1.6 0.00 0.05 0.05 80 1006.4
20260506181035 20 62 3.2 3.2 0.00 0.05 0.05 80 1006.8
20260506180531 20 192 3.2 3.2 0.00 0.05 0.05 80 1006.4
20260506180028 19 158 6.4 8.0 0.00 0.05 0.05 82 1006.8
20260506175525 19 170 9.7 9.7 0.00 0.05 0.05 81 1006.4
20260506175021 19 316 3.2 3.2 0.00 0.05 0.05 81 1006.4
20260506174520 19 186 8.0 8.0 0.00 0.05 0.05 82 1006.8
20260506174015 19 139 9.7 11.3 0.00 0.05 0.05 83 1006.8
20260506173513 19 301 0.0 0.0 0.00 0.05 0.05 84 1006.8
20260506173010 19 150 4.8 4.8 0.00 0.05 0.05 84 1006.4
20260506172508 19 251 3.2 3.2 0.00 0.05 0.05 84 1006.8
20260506172003 18 76 0.0 0.0 0.00 0.05 0.05 82 1007.1
20260506171501 18 200 3.2 3.2 0.00 0.05 0.05 86 1007.4
20260506170959 18 66 3.2 3.2 0.00 0.05 0.05 89 1006.8
20260506170455 17 177 3.2 3.2 0.00 0.05 0.05 88 1007.1
20260506165953 17 182 3.2 3.2 0.00 0.05 0.05 88 1007.1
20260506165452 17 180 0.0 0.0 0.00 0.05 0.05 89 1007.1
20260506164947 17 298 4.8 4.8 0.00 0.05 0.05 88 1007.1
20260506164444 17 293 3.2 3.2 0.00 0.05 0.05 88 1007.1
20260506163942 17 169 3.2 3.2 0.00 0.05 0.05 89 1007.1
20260506163437 17 257 0.0 0.0 0.00 0.05 0.05 89 1007.4
20260506162932 18 252 6.4 6.4 0.00 0.05 0.05 89 1007.1
20260506162430 18 258 3.2 3.2 0.00 0.05 0.05 88 1007.8
20260506161927 17 180 0.0 0.0 0.00 0.05 0.05 89 1007.4
20260506161426 17 161 3.2 3.2 0.00 0.05 0.05 89 1007.4
20260506160923 17 174 3.2 3.2 0.00 0.05 0.05 89 1007.8
20260506160420 17 246 0.0 0.0 0.00 0.05 0.05 89 1007.8
20260506155917 17 240 3.2 3.2 0.05 0.05 0.05 89 1008.1
20260506155415 18 276 3.2 3.2 0.05 0.05 0.05 86 1008.5
20260506153536 18 300 0.0 0.0 0.00 0.00 0.00 81 1008.5
20260506153034 18 198 3.2 3.2 0.00 0.00 0.00 83 1008.5
20260506152530 18 235 3.2 3.2 0.00 0.00 0.00 80 1008.5
20260506152029 19 204 3.2 3.2 0.00 0.00 0.00 78 1008.1
20260506151526 19 144 0.0 0.0 0.00 0.00 0.00 75 1008.5
20260506151023 19 199 3.2 3.2 0.00 0.00 0.00 75 1008.5
20260506150519 19 209 1.6 1.6 0.00 0.00 0.00 78 1008.5
20260506150016 19 193 0.0 0.0 0.00 0.00 0.00 73 1008.5
20260506145513 20 42 0.0 0.0 0.00 0.00 0.00 72 1008.5
20260506145010 20 95 3.2 3.2 0.00 0.00 0.00 68 1008.5
20260506144507 21 192 3.2 3.2 0.00 0.00 0.00 65 1008.1
20260506144005 21 57 3.2 3.2 0.00 0.00 0.00 67 1008.1
20260506143502 21 94 4.8 4.8 0.00 0.00 0.00 65 1008.5
20260506143000 21 173 6.4 6.4 0.00 0.00 0.00 66 1008.5
20260506142458 21 334 3.2 3.2 0.00 0.00 0.00 66 1008.5
20260506141955 21 161 9.7 9.7 0.00 0.00 0.00 63 1008.5
20260506141453 20 123 3.2 3.2 0.00 0.00 0.00 64 1008.5
20260506140952 20 312 4.8 4.8 0.00 0.00 0.00 66 1008.1
20260506140448 20 322 3.2 3.2 0.00 0.00 0.00 66 1008.5
20260506135945 20 232 4.8 6.4 0.00 0.00 0.00 64 1008.1
20260506135442 21 163 8.0 8.0 0.00 0.00 0.00 64 1008.5
20260506134938 21 168 3.2 3.2 0.00 0.00 0.00 66 1008.1
20260506134434 21 348 6.4 6.4 0.00 0.00 0.00 64 1007.8
20260506133931 20 151 0.0 0.0 0.00 0.00 0.00 63 1008.5
20260506133429 20 169 6.4 6.4 0.00 0.00 0.00 65 1008.1
20260506132925 20 129 0.0 0.0 0.00 0.00 0.00 66 1008.5
20260506132422 20 174 3.2 3.2 0.00 0.00 0.00 65 1008.1
20260506131920 20 290 3.2 3.2 0.00 0.00 0.00 64 1007.8
20260506131416 20 252 3.2 3.2 0.00 0.00 0.00 65 1008.1
20260506130913 20 222 3.2 3.2 0.00 0.00 0.00 65 1007.8
20260506130409 20 285 0.0 0.0 0.00 0.00 0.00 66 1008.1
20260506125908 20 251 3.2 3.2 0.00 0.00 0.00 68 1008.5
20260506125406 20 201 11.3 11.3 0.00 0.00 0.00 67 1008.5
20260506124904 20 221 3.2 3.2 0.00 0.00 0.00 68 1008.5
20260506124401 20 116 1.6 1.6 0.00 0.00 0.00 67 1008.5
20260506123858 20 18 3.2 3.2 0.00 0.00 0.00 67 1008.5
20260506123356 20 174 6.4 6.4 0.00 0.00 0.00 67 1008.8
20260506122853 20 28 3.2 3.2 0.00 0.00 0.00 67 1008.5
20260506122350 20 173 3.2 3.2 0.00 0.00 0.00 67 1008.5
20260506121848 20 156 6.4 6.4 0.00 0.00 0.00 67 1008.5
20260506121345 20 0 3.2 3.2 0.00 0.00 0.00 67 1008.1
20260506120842 20 241 9.7 9.7 0.00 0.00 0.00 64 1008.5
20260506120340 20 180 1.6 1.6 0.00 0.00 0.00 69 1008.5
20260506115837 20 174 8.0 9.7 0.00 0.00 0.00 67 1008.8
20260506115335 19 92 0.0 0.0 0.00 0.00 0.00 67 1008.5
20260506114833 18 150 3.2 3.2 0.00 0.00 0.00 69 1008.1
20260506114330 18 289 3.2 3.2 0.00 0.00 0.00 73 1008.5
20260506113829 18 34 0.0 0.0 0.00 0.00 0.00 72 1008.5
20260506113326 18 60 0.0 0.0 0.00 0.00 0.00 72 1008.1
20260506112823 18 69 0.0 0.0 0.00 0.00 0.00 74 1008.5
20260506112320 18 304 1.6 1.6 0.00 0.00 0.00 75 1008.5
20260506111817 18 317 3.2 3.2 0.00 0.00 0.00 75 1008.5
20260506111315 18 265 1.6 1.6 0.00 0.00 0.00 73 1008.1
20260506110812 18 196 4.8 4.8 0.00 0.00 0.00 74 1008.5
20260506110309 18 196 0.0 0.0 0.00 0.00 0.00 76 1008.8
20260506105806 18 149 3.2 3.2 0.00 0.00 0.00 74 1008.5
20260506105305 18 197 3.2 3.2 0.00 0.00 0.00 75 1008.1
20260506104800 18 311 3.2 3.2 0.00 0.00 0.00 77 1007.8
20260506104258 17 6 0.0 0.0 0.00 0.00 0.00 76 1008.1
20260506103755 17 169 3.2 3.2 0.00 0.00 0.00 78 1008.1
20260506103252 17 306 3.2 3.2 0.00 0.00 0.00 78 1008.1
20260506102750 17 244 3.2 3.2 0.00 0.00 0.00 78 1008.1
20260506102248 17 186 1.6 1.6 0.00 0.00 0.00 78 1008.1
20260506101744 17 180 4.8 4.8 0.00 0.00 0.00 78 1008.1
20260506101241 17 222 3.2 3.2 0.00 0.00 0.00 78 1008.1
20260506100739 17 192 1.6 1.6 0.00 0.00 0.00 79 1008.5
20260506100237 17 66 0.0 0.0 0.00 0.00 0.00 79 1008.1
20260506095735 17 192 0.0 0.0 0.00 0.00 0.00 80 1008.5
20260506095232 17 171 3.2 3.2 0.00 0.00 0.00 78 1008.5
20260506094728 17 209 0.0 0.0 0.00 0.00 0.00 78 1008.5
20260506094227 17 310 0.0 0.0 0.00 0.00 0.00 80 1008.1
20260506093725 17 321 4.8 4.8 0.00 0.00 0.00 79 1008.1
20260506093222 17 224 3.2 3.2 0.00 0.00 0.00 78 1008.1
20260506092720 17 48 0.0 0.0 0.00 0.00 0.00 80 1008.1
20260506092217 17 291 0.0 0.0 0.00 0.00 0.00 79 1008.1
20260506091715 17 186 3.2 3.2 0.00 0.00 0.00 79 1008.5
20260506091212 17 155 3.2 3.2 0.00 0.00 0.00 79 1008.1
20260506090709 17 182 0.0 0.0 0.00 0.00 0.00 80 1008.5
20260506090206 17 6 0.0 0.0 0.00 0.00 0.00 81 1008.1
20260506085703 17 192 3.2 3.2 0.00 0.00 0.00 79 1008.1
20260506085159 17 277 3.2 3.2 0.00 0.00 0.00 79 1008.5
20260506084656 17 282 3.2 3.2 0.00 0.00 0.00 79 1008.1
20260506084152 17 227 0.0 0.0 0.00 0.00 0.00 80 1008.1
20260506083649 17 60 1.6 1.6 0.00 0.00 0.00 79 1008.1
20260506083147 18 270 0.0 0.0 0.00 0.00 0.00 79 1008.1
20260506082644 17 177 6.4 6.4 0.00 0.00 0.00 79 1008.1
20260506082139 18 162 3.2 3.2 0.00 0.00 0.00 79 1008.5
20260506081637 18 318 0.0 0.0 0.00 0.00 0.00 80 1008.5
20260506081135 18 42 0.0 0.0 0.00 0.00 0.00 78 1008.8
20260506080632 18 311 4.8 4.8 0.00 0.00 0.00 79 1008.8
20260506080129 18 17 0.0 0.0 0.00 0.00 0.00 80 1008.8
20260506073113 18 201 3.2 3.2 0.00 0.00 0.00 78 1008.5
20260506072609 18 190 0.0 0.0 0.00 0.00 0.00 78 1008.8
20260506072107 18 216 8.0 9.7 0.00 0.00 0.00 77 1008.8
20260506071605 18 111 6.4 6.4 0.00 0.00 0.00 77 1008.5
20260506071102 18 192 3.2 3.2 0.00 0.00 0.00 77 1008.8
20260506070559 18 203 3.2 3.2 0.00 0.00 0.00 76 1008.8
20260506062033 19 7 0.0 0.0 0.00 0.00 0.00 75 1008.5
20260506061529 19 176 4.8 6.4 0.00 0.00 0.00 74 1008.8
20260506061027 19 202 3.2 3.2 0.00 0.00 0.00 75 1008.5
20260506060525 19 264 1.6 1.6 0.00 0.00 0.00 73 1008.8
20260506050954 20 59 0.0 0.0 0.00 0.00 0.00 71 1008.8
20260506050452 20 170 4.8 6.4 0.00 0.00 0.00 71 1009.1
20260506044942 20 284 0.0 0.0 0.00 0.00 0.00 71 1009.1
20260506044440 20 158 0.0 0.0 0.00 0.00 0.00 72 1009.1
20260506043937 20 152 4.8 4.8 0.00 0.00 0.00 71 1009.1
20260506043434 20 356 0.0 0.0 0.00 0.00 0.00 71 1009.1
20260506042932 20 289 3.2 3.2 0.00 0.00 0.00 70 1009.1
20260506042431 20 102 0.0 0.0 0.00 0.00 0.00 71 1009.1
20260506041929 20 161 0.0 0.0 0.00 0.00 0.00 71 1009.1
20260506041426 20 155 0.0 0.0 0.00 0.00 0.00 71 1009.1
20260506040923 20 217 0.0 0.0 0.00 0.00 0.00 70 1009.1
20260506040421 20 332 0.0 0.0 0.00 0.00 0.00 70 1009.1
20260506035916 20 90 3.2 3.2 0.00 0.00 0.00 70 1009.1
20260506035414 20 174 3.2 3.2 0.00 0.00 0.00 70 1009.1
20260506034911 20 289 3.2 3.2 0.00 0.00 0.00 68 1009.1
20260506034408 20 186 3.2 3.2 0.00 0.00 0.00 69 1009.1
20260506033905 20 180 4.8 4.8 0.00 0.00 0.00 67 1009.1
20260506033402 20 253 0.0 0.0 0.00 0.00 0.00 67 1009.1
20260506032859 20 199 4.8 4.8 0.00 0.00 0.00 65 1009.1
20260506032356 20 191 0.0 0.0 0.00 0.00 0.00 66 1009.5
20260506031853 20 325 3.2 3.2 0.00 0.00 0.00 65 1009.1
20260506031350 21 228 0.0 0.0 0.00 0.00 0.00 64 1009.5
20260506030848 20 327 3.2 3.2 0.00 0.00 0.00 64 1009.1
20260506030345 20 256 0.0 0.0 0.00 0.00 0.00 64 1009.1
20260506025842 21 228 1.6 1.6 0.00 0.00 0.00 62 1009.1
20260506025338 21 284 3.2 3.2 0.00 0.00 0.00 63 1009.1
20260506024836 21 191 1.6 1.6 0.00 0.00 0.00 63 1009.1
20260506024332 21 216 1.6 1.6 0.00 0.00 0.00 62 1009.5
20260506023829 21 186 3.2 3.2 0.00 0.00 0.00 62 1009.5
20260506023325 21 257 6.4 6.4 0.00 0.00 0.00 61 1009.5
20260506022822 21 114 0.0 0.0 0.00 0.00 0.00 63 1009.5
20260506022320 21 115 0.0 0.0 0.00 0.00 0.00 60 1009.5
20260506021818 21 245 4.8 4.8 0.00 0.00 0.00 59 1009.5